Temp
-6 -6 -6 -6 -6 -6 -6 -6 -6 -6 -6 -6 -6 -6 -6 -6 -6 -6 -6 -6 -6 -6 -6 -6 -7 -6 -6 -7 -7 -7 -7 -8 -8 -8 -7 -7 -7 -6 -6 -6 -6 -7 -7
-6 -6 -6 -6 -6 -7 -7 -7 -7 -6 -6 -7 -7 -7 -7 -6 -7 -7 -7 -7 -7 -6 -6 -7 -7 -6 -7 -7 -7 -7 -7 -7 -7 -7 -7 -7 -7 -7 -7 -7 -6 -7 -7
-7 -7 -7 -7 -7 -7 -7 -7 -7 -7 -7 -7 -7 -7 -7 -7 -8 -7 -7 -7 -6 -7 -7 -7 -7 -7 -6 -6 -7 -6 -7 -7 -7 -7 -7 -7 -6 -6 -7 -7 -7 -7 -7
-7 -7 -7 -7 -7 -7 -7 -7 -7 -8 -8 -8 -8 -7 -7 -7 -6 -6 -7 -7 -6 -6 -7 -7 -7 -7 -6 -7 -6 -6 -6 -7 -7 -7 -7 -7 -7 -7 -7 -7 -7 -7 -7
-7 -7 -7 -8 -7 -7 -7 -7 -8 -8 -7 -8 -7 -6 -7 -7 -7 -7 -7 -6 -7 -6 -7 -6 -7 -7 -7 -7 -7 -7 -7 -7 -6 -7 -7 -7 -7 -7 -7 -7 -7 -7 -7
-7 -7 -8 -8 -8 -8 -8 -8 -8 -8 -8 -8 -8 -8 -8 -7 -6 -6 -7 -6 -6 -7 -7 -7 -7 -7 -7 -7 -7 -7 -8 -7 -7 -7 -8 -7 -7 -7 -7 -7 -7 -7 -7
-7 -7 -7 -8 -8 -9 -8 -8 -7 -8 -8 -8 -8 -7 -7 -7 -7 -7 -7 -7 -7 -7 -7 -7 -8 -7 -7 -7 -7 -7 -7 -7 -8 -8 -7 -8 -7 -8 -8 -7 -7 -7 -7
-6 -7 -7 -7 -7 -7 -8 -8 -7 -7 -7 -7 -7 -7 -7 -7 -7 -7 -6 -6 -6 -7 -7 -7 -8 -7 -7 -7 -7 -7 -7 -8 -8 -8 -8 -8 -8 -8 -8 -8 -7 -7 -7
-6 -6 -7 -7 -7 -7 -7 -7 -7 -7 -7 -7 -7 -6 -7 -7 -7 -6 -6 -6 -7 -7 -7 -7 -8 -7 -7 -8 -7 -8 -8 -9 -9 -9 -9 -9 -9 -8 -8 -8 -8 -8 -7
-7 -7 -7 -7 -7 -7 -7 -7 -7 -7 -7 -7 -7 -7 -6 -6 -6 -6 -6 -6 -6 -6 -7 -7 -7 -8 -8 -8 -8 -9 -9 -9 -9 -9 -9 -9 -9 -9 -9 -8 -8 -8 -8
-7 -7 -7 -7 -7 -7 -7 -7 -7 -7 -7 -7 -7 -7 -6 -6 -6 -6 -7 -6 -6 -6 -6 -6 -7 -8 -8 -8 -8 -8 -9 -9 -9 -9 -10 -10 -10 -9 -9 -9 -9 -8 -8
-6 -7 -7 -7 -7 -7 -7 -8 -7 -7 -7 -7 -7 -7 -7 -6 -6 -6 -6 -6 -6 -6 -6 -6 -7 -8 -8 -9 -9 -9 -9 -9 -10 -10 -10 -10 -10 -10 -9 -9 -9 -9 -9
-7 -7 -7 -7 -7 -7 -7 -7 -7 -8 -7 -7 -7 -7 -7 -7 -7 -7 -7 -7 -7 -7 -7 -7 -7 -8 -8 -9 -9 -9 -10 -10 -10 -11 -11 -11 -11 -10 -10 -10 -10 -9 -10
-6 -7 -7 -7 -7 -7 -7 -7 -7 -7 -7 -7 -7 -7 -7 -7 -7 -7 -7 -7 -7 -7 -7 -7 -8 -8 -9 -9 -9 -10 -10 -10 -11 -11 -11 -11 -11 -11 -11 -11 -10 -10 -10
-6 -6 -6 -7 -7 -7 -7 -7 -7 -7 -7 -7 -7 -7 -7 -7 -7 -7 -8 -8 -8 -7 -7 -7 -8 -8 -8 -9 -9 -9 -10 -10 -10 -11 -11 -11 -11 -11 -11 -12 -12 -12 -11
-6 -6 -7 -7 -7 -7 -7 -7 -7 -7 -7 -7 -7 -7 -7 -8 -8 -8 -8 -8 -8 -8 -8 -8 -8 -8 -8 -9 -9 -9 -9 -10 -10 -11 -11 -11 -11 -11 -11 -11 -12 -12 -12
-6 -7 -7 -7 -7 -7 -7 -7 -7 -7 -7 -7 -7 -7 -7 -8 -8 -7 -8 -8 -8 -8 -8 -9 -8 -9 -9 -9 -9 -9 -10 -10 -11 -11 -11 -11 -11 -11 -11 -11 -11 -11 -12
-6 -7 -7 -7 -7 -7 -7 -7 -7 -7 -7 -7 -7 -7 -7 -7 -8 -8 -8 -8 -9 -9 -9 -9 -8 -9 -9 -9 -9 -9 -10 -10 -11 -11 -11 -12 -11 -11 -11 -11 -11 -11 -12
-6 -7 -7 -7 -7 -7 -7 -7 -7 -7 -6 -7 -7 -7 -7 -7 -7 -8 -7 -8 -8 -9 -9 -9 -9 -9 -8 -9 -9 -9 -10 -10 -11 -11 -12 -12 -12 -12 -11 -11 -12 -12 -12
-7 -7 -7 -7 -7 -7 -7 -7 -7 -7 -7 -7 -7 -7 -7 -7 -7 -7 -8 -8 -8 -8 -8 -9 -9 -9 -9 -9 -9 -9 -10 -10 -11 -12 -12 -12 -12 -12 -11 -11 -12 -12 -12
-7 -7 -7 -7 -7 -7 -7 -7 -7 -7 -7 -7 -7 -7 -7 -7 -7 -7 -7 -8 -8 -8 -8 -9 -9 -9 -9 -9 -9 -9 -10 -10 -11 -11 -12 -12 -12 -11 -11 -11 -11 -12 -12
-7 -7 -7 -7 -7 -7 -7 -7 -7 -7 -7 -7 -7 -7 -7 -7 -7 -7 -8 -8 -8 -8 -8 -9 -9 -9 -9 -9 -9 -9 -10 -10 -10 -10 -11 -11 -11 -11 -11 -11 -11 -11 -12
-6 -7 -6 -7 -7 -6 -6 -7 -7 -7 -7 -7 -7 -7 -7 -7 -7 -7 -8 -8 -8 -8 -8 -9 -9 -9 -9 -9 -9 -9 -9 -9 -10 -10 -10 -11 -11 -11 -11 -11 -11 -11 -11
-6 -7 -7 -7 -7 -7 -6 -7 -7 -7 -7 -7 -7 -7 -7 -8 -7 -7 -7 -8 -8 -8 -8 -8 -9 -8 -9 -9 -9 -9 -9 -9 -9 -9 -10 -10 -10 -10 -10 -10 -10 -10 -10
-7 -7 -7 -7 -7 -7 -7 -7 -7 -7 -7 -7 -7 -8 -7 -8 -8 -8 -8 -8 -8 -8 -8 -8 -8 -8 -8 -8 -9 -8 -8 -8 -9 -9 -9 -9 -9 -10 -9 -10 -9 -9 -10
-7 -7 -7 -7 -7 -7 -7 -7 -7 -7 -7 -7 -7 -8 -8 -8 -8 -8 -7 -8 -8 -8 -8 -8 -8 -8 -8 -8 -8 -8 -8 -9 -9 -9 -9 -9 -9 -9 -9 -9 -10 -10 -10
Height
5917 5919 5921 5923 5924 5924 5923 5922 5921 5920 5918 5916 5914 5913 5913 5910 5905 5903 5902 5901 5900 5899 5898 5898 5898 5899 5896 5892 5891 5890 5890 5891 5894 5894 5893 5892 5891 5889 5888 5887 5884 5882 5880
5916 5916 5917 5919 5920 5921 5921 5919 5917 5915 5913 5913 5912 5911 5907 5904 5904 5901 5900 5899 5898 5895 5894 5894 5891 5890 5891 5888 5886 5885 5884 5882 5883 5883 5881 5881 5880 5880 5879 5879 5878 5875 5873
5915 5914 5914 5914 5916 5916 5916 5916 5915 5913 5911 5910 5909 5904 5903 5900 5897 5895 5894 5892 5886 5885 5887 5886 5885 5884 5881 5879 5878 5876 5873 5871 5871 5871 5872 5870 5868 5869 5868 5868 5866 5865 5862
5912 5912 5911 5911 5912 5912 5912 5910 5909 5910 5908 5906 5902 5896 5890 5885 5876 5878 5884 5880 5872 5871 5879 5880 5877 5876 5874 5872 5869 5868 5864 5863 5862 5863 5862 5861 5859 5857 5855 5854 5854 5852 5852
5909 5908 5907 5907 5907 5908 5908 5906 5905 5904 5900 5897 5890 5881 5876 5874 5875 5874 5877 5876 5873 5870 5871 5872 5869 5867 5863 5862 5861 5860 5858 5856 5856 5854 5851 5852 5850 5846 5845 5844 5843 5841 5843
5906 5906 5904 5904 5903 5904 5904 5901 5897 5893 5891 5888 5888 5886 5881 5878 5878 5876 5872 5866 5864 5865 5862 5861 5860 5859 5855 5853 5852 5852 5851 5850 5847 5845 5843 5843 5842 5839 5838 5837 5836 5834 5833
5904 5902 5901 5900 5899 5899 5897 5896 5894 5893 5891 5890 5885 5882 5880 5877 5873 5869 5864 5860 5859 5857 5854 5853 5851 5848 5846 5846 5845 5843 5842 5840 5839 5838 5836 5833 5834 5831 5829 5828 5828 5827 5823
5899 5899 5899 5899 5897 5897 5896 5894 5892 5891 5890 5886 5883 5880 5875 5874 5870 5864 5861 5857 5851 5848 5846 5846 5844 5841 5840 5839 5837 5835 5833 5830 5827 5827 5827 5823 5822 5822 5820 5820 5819 5817 5817
5893 5894 5894 5894 5894 5893 5892 5890 5889 5888 5886 5884 5881 5879 5875 5869 5862 5855 5851 5847 5844 5842 5842 5840 5838 5836 5833 5830 5828 5826 5824 5821 5819 5817 5816 5815 5814 5812 5811 5811 5810 5810 5809
5892 5892 5892 5891 5891 5890 5888 5888 5887 5885 5883 5880 5878 5875 5871 5867 5860 5854 5848 5843 5840 5837 5836 5834 5832 5829 5825 5824 5822 5821 5818 5816 5813 5810 5807 5806 5805 5803 5803 5802 5802 5801 5801
5891 5891 5891 5890 5889 5887 5887 5886 5885 5883 5880 5878 5875 5872 5868 5864 5858 5851 5846 5842 5839 5836 5833 5830 5826 5824 5821 5819 5818 5816 5813 5810 5807 5803 5798 5795 5795 5794 5794 5794 5795 5794 5790
5891 5891 5890 5888 5887 5887 5886 5885 5883 5880 5878 5875 5873 5870 5866 5862 5857 5852 5848 5844 5840 5836 5832 5828 5824 5821 5819 5817 5814 5811 5808 5803 5799 5796 5794 5790 5788 5788 5787 5788 5788 5786 5778
5891 5890 5890 5889 5888 5887 5886 5884 5882 5880 5878 5875 5872 5869 5865 5861 5856 5852 5848 5843 5839 5835 5831 5827 5823 5820 5817 5813 5810 5806 5802 5799 5796 5794 5792 5790 5787 5785 5784 5783 5782 5781 5778
5891 5890 5889 5888 5888 5886 5884 5883 5881 5880 5878 5876 5872 5869 5865 5860 5856 5852 5848 5844 5840 5836 5832 5827 5824 5820 5816 5813 5810 5807 5803 5799 5795 5791 5789 5786 5783 5781 5779 5778 5778 5776 5776
5890 5889 5889 5889 5887 5885 5884 5882 5881 5879 5878 5875 5872 5868 5864 5860 5857 5853 5849 5845 5841 5837 5833 5829 5826 5822 5818 5814 5810 5806 5802 5797 5793 5789 5785 5782 5780 5778 5776 5774 5772 5770 5769
5890 5889 5889 5888 5887 5885 5883 5882 5880 5878 5876 5873 5870 5867 5864 5860 5857 5853 5848 5845 5841 5837 5833 5829 5825 5822 5817 5813 5809 5805 5800 5795 5791 5787 5783 5780 5777 5775 5774 5772 5771 5769 5766
5889 5889 5888 5887 5886 5884 5883 5881 5880 5877 5875 5872 5869 5866 5862 5859 5855 5852 5849 5845 5841 5838 5834 5830 5826 5822 5817 5813 5808 5803 5797 5792 5787 5784 5781 5778 5775 5773 5771 5769 5768 5768 5766
5888 5887 5887 5886 5885 5884 5882 5881 5880 5877 5875 5872 5869 5865 5862 5858 5854 5850 5846 5844 5840 5837 5833 5830 5826 5821 5817 5812 5807 5801 5795 5789 5784 5780 5777 5775 5773 5771 5769 5767 5766 5765 5764
5887 5886 5885 5885 5885 5883 5883 5881 5879 5876 5875 5872 5868 5865 5862 5858 5854 5850 5845 5843 5839 5835 5831 5828 5825 5820 5816 5811 5805 5799 5793 5787 5781 5776 5773 5771 5770 5769 5768 5766 5765 5764 5763
5885 5885 5884 5884 5883 5881 5880 5879 5878 5875 5873 5870 5867 5864 5861 5857 5853 5850 5846 5843 5839 5835 5830 5827 5824 5820 5816 5810 5805 5798 5791 5784 5779 5774 5771 5770 5770 5769 5767 5766 5764 5763 5762
5883 5882 5882 5882 5881 5880 5878 5877 5876 5874 5871 5869 5867 5863 5860 5856 5853 5849 5846 5842 5838 5834 5831 5826 5823 5819 5815 5809 5804 5797 5791 5785 5780 5776 5773 5771 5771 5770 5768 5766 5764 5763 5762
5879 5879 5878 5878 5878 5877 5876 5875 5874 5872 5870 5868 5865 5862 5858 5854 5851 5848 5844 5840 5837 5834 5830 5826 5822 5819 5815 5810 5804 5798 5792 5787 5783 5779 5776 5774 5772 5770 5768 5766 5764 5763 5761
5876 5876 5875 5875 5875 5874 5873 5873 5871 5870 5868 5865 5862 5860 5857 5853 5850 5847 5843 5839 5836 5832 5829 5826 5822 5818 5814 5809 5805 5800 5794 5790 5786 5783 5779 5776 5774 5772 5769 5767 5765 5762 5760
5873 5872 5873 5872 5871 5871 5870 5870 5868 5866 5865 5863 5860 5857 5855 5851 5848 5845 5842 5838 5835 5831 5828 5825 5821 5817 5813 5810 5806 5802 5797 5792 5788 5785 5782 5779 5776 5774 5771 5768 5764 5761 5759
5870 5870 5869 5868 5868 5867 5866 5865 5864 5863 5862 5860 5858 5855 5852 5848 5845 5843 5840 5837 5833 5830 5827 5823 5820 5817 5814 5810 5806 5803 5799 5794 5790 5786 5783 5780 5777 5774 5771 5768 5765 5762 5759
5866 5866 5866 5865 5864 5863 5862 5862 5861 5860 5858 5857 5855 5852 5849 5847 5843 5839 5836 5833 5830 5827 5825 5821 5819 5816 5813 5810 5806 5804 5800 5796 5792 5788 5785 5781 5778 5774 5771 5767 5764 5760 5757
Wind_Speed
12 13 12 13 12 10 10 11 13 14 15 16 17 16 17 19 22 23 22 22 23 24 24 26 27 26 27 29 28 28 26 26 23 27 30 32 33 34 33 31 29 25 21
16 14 12 13 13 10 10 13 15 18 19 18 17 17 21 23 23 25 27 28 29 28 26 24 23 24 31 33 33 35 36 30 28 28 30 33 36 37 39 39 36 31 29
15 14 14 14 13 13 15 15 17 19 19 19 21 25 27 29 31 32 31 35 35 36 30 26 25 26 31 30 30 37 42 39 34 34 35 36 41 44 44 44 43 38 34
15 16 16 17 17 18 18 19 18 18 20 25 27 32 35 35 36 36 37 37 28 26 26 29 24 25 28 32 30 26 27 36 35 36 34 35 38 41 47 50 41 44 38
21 21 20 20 21 21 22 23 22 24 25 28 32 34 39 39 37 38 25 20 20 20 21 21 22 26 28 31 32 29 27 27 26 30 35 29 30 29 26 25 31 33 41
21 21 23 24 25 24 23 26 25 25 25 26 29 33 37 38 35 33 34 34 26 24 25 25 26 31 32 32 33 33 32 29 33 33 37 36 34 27 29 28 26 29 27
14 15 15 18 19 21 22 24 23 23 24 28 31 31 30 32 33 32 31 30 30 27 26 28 30 32 33 32 33 34 33 33 33 32 35 39 34 34 29 27 27 29 26
11 13 15 15 17 19 19 20 20 21 20 21 23 26 28 27 26 28 27 27 27 26 24 26 27 30 31 31 31 31 33 34 34 35 36 35 34 34 31 29 27 28 26
10 11 11 12 12 12 11 12 13 14 15 18 18 18 21 26 29 32 29 27 25 23 22 25 25 26 27 27 28 29 31 33 34 34 34 35 35 35 32 29 28 27 25
6 5 5 5 6 7 8 8 10 14 16 16 17 19 22 24 27 26 24 19 17 19 20 22 27 27 25 24 23 24 26 28 30 32 33 31 30 31 31 29 26 26 26
2 1 3 4 4 5 6 7 8 10 12 16 17 19 20 21 25 20 19 17 17 17 17 17 19 20 20 20 21 22 23 24 25 28 29 25 24 26 26 25 24 23 28
2 2 4 5 6 6 7 7 11 11 12 13 15 18 20 21 22 21 21 19 18 18 16 15 14 14 15 16 18 21 22 23 23 24 24 23 22 22 22 22 22 28 27
1 1 3 4 5 5 5 7 8 9 11 13 15 17 19 21 21 20 21 22 21 20 19 19 19 19 18 18 20 21 22 23 23 22 20 19 19 19 18 19 21 25 24
2 2 3 4 6 6 6 8 9 10 9 11 13 15 18 19 20 20 21 21 22 21 21 22 22 22 21 20 21 20 17 16 15 14 14 15 15 17 15 15 16 19 20
1 1 3 4 5 6 6 7 9 9 10 11 12 14 16 17 18 18 18 18 18 19 20 19 20 20 21 22 23 24 22 20 18 16 15 12 12 12 13 13 13 13 16
1 1 3 4 6 6 7 8 9 10 11 13 13 15 15 16 16 16 17 17 18 18 18 19 21 23 23 26 27 27 27 24 21 18 15 14 13 13 14 13 15 12 10
1 1 2 4 6 8 10 11 11 11 11 12 13 15 16 16 17 16 14 17 17 17 18 18 19 22 23 25 27 29 28 27 24 20 17 15 14 13 13 10 10 11 11
1 1 3 5 6 7 10 11 12 12 12 12 13 14 15 16 17 21 17 18 18 18 19 18 19 22 24 25 27 28 27 27 26 23 19 13 12 11 11 10 9 10 10
3 2 3 5 6 7 7 9 12 13 13 12 13 14 15 16 18 19 15 17 21 20 18 18 20 23 25 25 29 29 29 27 26 23 17 12 8 8 9 9 9 8 7
4 5 5 7 7 8 8 9 11 13 14 15 15 15 15 17 18 19 18 18 20 17 17 18 18 21 25 26 28 30 30 29 25 20 12 7 7 8 9 9 8 8 7
8 9 9 9 8 10 9 8 9 12 14 15 16 16 17 18 19 19 20 16 19 16 19 19 17 20 22 24 28 29 29 26 22 18 11 10 10 10 12 11 11 7 6
10 11 11 10 9 9 8 9 10 10 13 15 17 17 18 19 19 18 19 20 18 18 17 17 17 20 23 24 28 28 27 25 22 18 14 13 13 14 14 12 11 10 10
6 7 8 8 9 8 9 10 11 11 14 16 17 19 19 20 21 20 19 20 20 20 20 18 17 19 22 23 24 26 26 23 21 20 18 16 15 15 14 13 12 14 13
6 6 7 7 8 9 9 10 12 13 14 15 17 19 19 19 20 21 19 19 19 17 18 17 15 18 21 22 22 24 25 23 21 20 18 17 15 15 15 16 16 16 14
8 9 10 11 11 11 11 11 13 13 14 15 17 18 19 21 21 21 20 17 19 17 16 16 15 17 17 18 19 21 20 20 18 16 17 16 17 17 18 18 18 16 13
10 11 11 12 13 13 12 12 13 14 14 15 16 18 19 19 20 22 22 21 19 20 17 16 16 15 15 16 15 16 17 17 18 18 19 19 19 19 19 19 17 15 14
Wind_Direction
238 245 257 264 256 253 260 271 274 273 273 275 277 276 278 273 263 259 256 255 253 250 250 252 258 266 267 263 261 258 254 256 259 266 270 276 279 281 282 280 277 272 267
246 246 246 256 262 258 252 257 265 273 277 276 279 279 271 272 276 274 271 274 273 267 260 262 264 272 275 274 274 275 272 263 258 258 263 270 274 276 277 278 274 268 268
242 243 249 256 258 260 262 264 268 273 273 273 273 271 276 274 275 276 279 279 268 259 261 257 261 273 282 273 282 286 275 270 265 264 261 265 269 272 273 272 265 259 259
254 255 256 261 264 267 272 271 271 274 274 279 281 278 275 269 269 271 274 277 316 265 265 273 261 268 279 272 285 289 292 282 280 275 281 281 281 277 270 266 272 266 260
257 262 261 263 266 269 275 280 278 273 273 276 281 289 296 307 318 323 320 307 309 293 284 278 271 266 274 277 284 282 279 282 270 271 277 291 286 303 288 268 281 262 261
259 263 261 270 270 276 279 275 275 276 278 288 298 298 302 309 312 311 312 314 310 299 289 281 279 276 276 277 279 281 281 274 277 278 284 290 295 293 291 285 284 278 284
255 260 261 261 266 266 277 290 296 300 297 294 297 300 302 306 311 314 310 305 298 291 287 284 279 276 276 278 280 280 282 283 280 280 284 286 290 290 288 288 282 284 286
265 264 266 265 268 275 279 285 290 294 296 293 299 304 308 312 316 317 313 300 294 293 291 283 282 280 280 280 279 282 283 284 287 286 283 285 286 282 283 282 282 286 283
285 284 282 282 283 284 288 291 295 296 297 308 311 315 318 320 321 319 317 310 298 290 286 284 288 286 287 287 289 288 288 291 293 290 285 280 278 279 281 280 279 281 286
293 298 304 301 298 295 295 296 301 307 311 317 326 332 336 334 328 324 327 322 313 304 297 290 295 297 298 293 287 282 283 284 287 290 290 283 277 275 276 277 276 280 281
36 353 312 310 317 315 305 315 333 326 320 327 332 333 335 341 355 353 353 350 344 334 321 311 304 299 297 296 295 293 294 296 300 305 304 298 287 277 275 274 271 272 279
58 31 26 3 356 348 346 332 324 331 328 326 336 345 347 354 356 4 14 11 8 5 3 358 343 322 318 321 320 319 315 311 309 315 312 306 300 291 284 281 272 265 271
64 129 336 339 334 334 336 332 336 336 340 342 340 344 350 354 357 2 3 2 8 12 13 14 16 13 3 344 335 335 324 312 306 303 302 297 293 288 285 281 276 270 277
231 311 350 355 354 355 350 337 352 353 335 334 336 344 350 352 352 357 1 4 4 5 9 10 9 7 4 356 348 344 350 355 357 347 324 309 302 296 289 278 273 269 274
202 353 13 17 17 13 4 354 350 341 338 337 338 345 346 347 348 351 352 351 354 359 360 357 358 1 2 359 355 350 344 337 333 333 333 333 336 338 337 333 320 304 277
129 26 10 16 7 2 5 5 359 357 355 354 352 354 349 342 343 344 347 347 348 352 352 355 356 355 354 353 350 347 344 341 334 327 328 328 325 318 309 302 326 337 325
136 5 22 28 12 7 6 5 359 355 357 356 354 356 353 347 345 345 343 338 343 342 338 346 354 354 351 350 346 343 342 339 335 327 316 320 327 326 327 315 293 312 321
239 320 346 353 359 359 357 351 351 352 353 356 357 353 346 345 341 344 344 347 341 340 341 353 352 354 355 351 346 344 341 336 335 332 325 315 316 326 332 331 324 308 305
249 310 333 333 335 336 338 351 355 354 356 357 355 347 344 343 345 344 338 353 352 346 345 347 352 350 352 354 351 346 344 342 338 335 334 331 336 335 331 329 324 317 306
266 291 313 325 330 320 337 353 349 347 358 0 352 344 343 342 345 347 341 348 350 353 3 358 351 348 349 353 355 351 351 352 354 354 353 5 6 357 357 345 330 319 321
268 284 295 306 318 318 323 335 346 342 343 346 350 348 350 343 347 347 344 344 345 339 350 355 353 347 349 352 0 356 360 4 7 10 23 32 23 15 4 0 351 329 325
268 278 289 299 303 306 317 323 329 335 340 340 342 345 350 342 343 344 344 340 347 348 348 351 353 348 352 356 3 2 6 11 13 19 26 26 18 11 9 5 358 0 347
267 272 284 294 299 309 318 316 324 337 338 340 337 336 340 341 339 343 345 338 341 345 347 347 352 350 356 0 3 7 10 14 15 16 20 19 12 8 6 1 351 341 331
263 275 285 290 300 308 321 323 328 333 332 332 331 333 331 331 335 336 338 337 341 341 341 347 345 348 355 359 5 9 14 13 16 16 18 17 13 9 6 4 359 354 346
264 273 283 289 296 302 311 319 318 324 328 328 327 329 329 329 328 329 332 338 335 340 341 337 344 353 352 0 8 9 11 14 14 10 9 11 10 8 8 6 2 358 356
277 279 283 288 294 300 307 314 316 322 323 322 323 323 323 321 320 321 326 334 333 334 341 333 341 347 350 351 9 4 1 1 4 8 11 11 9 4 359 352 347 350 347